English version Home page |
Updated on October 4, 2009 |
プロフィール
|
軌道要素Epoch 2003 Nov. 17.0 TT = JDT 2452960.5 T 2003 Nov. 19.89684 TT MPC q 1.7933609 (2000.0) P Q n 0.14497606 Peri. 90.23544 -0.76262827 -0.64097271 a 3.5887112 Node 49.90168 +0.53904634 -0.70404006 e 0.5002772 Incl. 6.52330 +0.35752924 -0.30574756 P 6.80
|
星図
|
光度変化m1 = 15.0 + 5 logΔ + 10.0 log r
|
軌道要素はM.P.E.C. 2009-S126に掲載されたものです。
|